Flag for Germany Weather past 2 weeks in Alfeld (Leine), Lower Saxony, Germany

Now
66 °F

Sunny.


Feels Like: 66 °F
Forecast: 55 / 78 °F
Wind: 3 mph from Southeast

Location: Braunschweig

Current Time: Aug 4, 2015 at 7:46:03 AM

Latest Report: Aug 4, 2015 at 7:20 AM


Visibility: 10 mi

Pressure: 29.89 "Hg

Humidity: 78%

Dew point: 59 °F

Location of Alfeld (Leine)Location

Historic Weather in Alfeld (Leine) — Graph

°F

Alfeld (Leine) temperature yesterday

Maximum temperature yesterday: 90 °F (at 3:20 PM)
Minimum temperature yesterday: 57 °F (at 6:50 AM)
Average temperature yesterday: 80 °F

Past Weeks' High & Low Weather Summary

 TemperatureHumidityPressure
High90 °F (Aug 3, 3:20 PM)100% (Jul 21, 6:50 AM)30.15 "Hg (Jul 21, 6:50 AM)
Low50 °F (Jul 31, 6:50 AM)26% (Aug 3, 4:50 PM)29.53 "Hg (Jul 25, 1:50 PM)
Average68 °F62%29.87 "Hg
* Reported Jul 20 6:50 AM — Aug 4 6:50 AM, Alfeld (Leine), Weather by CustomWeather, © 2015

Note: Actual official high and low records may vary slightly from our data, if they occured in-between our weather recording intervals... More about our weather records

Advertising

Alfeld (Leine) weather history for previous 24 hours

 ConditionsComfort  
Time TempWeatherWind HumidityBarometerVisibility
6:50 AM
Tue, Aug 4
64 °FSunny.3 mph78%29.92 "Hg10 mi
9:50 PM
Mon, Aug 3
77 °FSunny.8 mph42%29.98 "Hg10 mi
9:20 PM77 °FSunny.8 mph44%29.98 "Hg10 mi
8:50 PM81 °FSunny.8 mph39%29.98 "Hg10 mi
8:20 PM82 °FSunny.8 mph37%29.98 "Hg10 mi
7:50 PM86 °FSunny.8 mph35%29.98 "Hg10 mi
7:20 PM88 °FSunny.7 mph31%29.98 "Hg10 mi
6:50 PM88 °FSunny.7 mph33%29.98 "Hg10 mi
6:20 PM88 °FPassing clouds.8 mph29%29.98 "HgN/A
5:50 PM90 °FPassing clouds.10 mph29%29.98 "HgN/A
5:20 PM90 °FPassing clouds.8 mph26%29.98 "HgN/A
4:50 PM90 °FPassing clouds.6 mph26%30.01 "HgN/A
4:20 PM90 °FPassing clouds.6 mph29%30.01 "HgN/A
3:50 PM90 °FPassing clouds.8 mph27%30.01 "HgN/A
3:20 PM90 °FPassing clouds.8 mph27%30.01 "HgN/A
2:20 PM88 °FPassing clouds.12 mph31%30.01 "HgN/A
1:50 PM86 °FPassing clouds.8 mph33%30.04 "HgN/A
1:20 PM88 °FPassing clouds.9 mph35%30.04 "HgN/A
12:50 PM86 °FPassing clouds.9 mph35%30.04 "HgN/A
12:20 PM84 °FPassing clouds.7 mph37%30.04 "HgN/A
11:50 AM82 °FPassing clouds.9 mph37%30.07 "HgN/A
11:20 AM82 °FPassing clouds.10 mph37%30.07 "HgN/A
10:50 AM81 °FPassing clouds.10 mph37%30.07 "HgN/A
10:20 AM79 °FPassing clouds.8 mph42%30.07 "HgN/A
9:50 AM73 °FSunny.8 mph57%30.07 "Hg10 mi
9:20 AM70 °FSunny.7 mph64%30.07 "Hg10 mi
8:50 AM68 °FSunny.7 mph64%30.07 "Hg10 mi
8:20 AM64 °FSunny.12 mph73%30.07 "Hg10 mi
7:50 AM61 °FSunny.9 mph83%30.07 "Hg10 mi
7:20 AM59 °FSunny.8 mph88%30.07 "Hg10 mi
Weather by CustomWeather, © 2015

See weather overviewHow to use our weather pages